Shreveport, LA

10:47 AM CDT on August 27, 2016 (GMT -0500)
Shreveport Downtown

Weather History for KDTN - January, 2013

Change the Weather History Date:

Tuesday, January 15, 2013

  Actual Average (KSHV) Record (KSHV)
Temperature  
Mean Temperature 31 °F 46 °F  
Max Temperature 33 °F 57 °F 80 °F (1950)
Min Temperature 30 °F 36 °F 15 °F (1888)
Degree Days  
Heating Degree Days 34 19  
Month to date heating degree days 285  
Since 1 July heating degree days 1187  
Cooling Degree Days 0 0  
Month to date cooling degree days 0  
Year to date cooling degree days 0  
Moisture  
Dew Point 28 °F    
Average Humidity 88    
Maximum Humidity 100    
Minimum Humidity 72    
Precipitation  
Precipitation 0.07 in 0.14 in 4.27 in (1885)
Month to date precipitation 1.91  
Year to date precipitation 1.91  
Snow  
Snow 0.00 in - - ()
Month to date snowfall  
Since 1 July snowfall  
Snow Depth -    
Sea Level Pressure  
Sea Level Pressure 30.16 in    
Wind  
Wind Speed 7 mph (North)    
Max Wind Speed 12 mph    
Max Gust Speed 16 mph    
Visibility 8 miles    
Events Rain    
T = Trace of Precipitation, MM = Missing Value Source: NWS Daily Summary

Daily Weather History Graph

Daily Weather History Graph

Search for Another Location

Airport or City:

Trip Planner

Search our weather history database for the weather conditions in past years. The results will help you decide how hot, cold, wet, or windy it might be!

Date:

Astronomy

Jan. 15, 2013 Rise Set
Actual Time 7:16 AM CST 5:32 PM CST
Civil Twilight 6:50 AM CST 5:59 PM CST
Nautical Twilight 6:20 AM CST 6:29 PM CST
Astronomical Twilight 5:50 AM CST 6:58 PM CST
Moon 9:40 AM CST (1/15) 10:03 PM CST (1/15)
Length of Visible Light 11h 08m
Length of Day
10h 15m
Waxing Crescent, 19% of the Moon is Illuminated
Jan 15
Waxing Crescent
Jan 18
First Quarter
Jan 26
Full
Feb 3
Last Quarter
Feb 10
New

Hourly Weather History & Observations

Time (CST) Temp. Windchill Dew Point Humidity Pressure Visibility Wind Dir Wind Speed Gust Speed Precip Events Conditions
12:53 AM 30.0 °F 23.2 °F 23.0 °F 75% 30.21 in 10.0 mi NNE 6.9 mph - N/A   Clear
1:53 AM 30.0 °F 21.7 °F 21.9 °F 72% 30.20 in 10.0 mi NE 9.2 mph - N/A   Partly Cloudy
2:53 AM 30.0 °F 22.4 °F 21.9 °F 72% 30.19 in 10.0 mi NE 8.1 mph - N/A   Mostly Cloudy
3:53 AM 30.9 °F 22.8 °F 23.0 °F 72% 30.17 in 10.0 mi NNE 9.2 mph - N/A   Overcast
4:11 AM 30.2 °F 23.4 °F 23.0 °F 75% 30.17 in 10.0 mi NNE 6.9 mph - N/A   Overcast
5:53 AM 30.9 °F 23.5 °F 23.0 °F 72% 30.16 in 10.0 mi NNE 8.1 mph - N/A   Overcast
6:53 AM 30.9 °F 21.7 °F 24.1 °F 76% 30.15 in 10.0 mi NNE 11.5 mph 16.1 mph N/A   Overcast
7:50 AM 30.2 °F 24.3 °F 24.8 °F 80% 30.15 in 9.0 mi North 5.8 mph - 0.00 in Rain Light Freezing Rain
7:53 AM 30.0 °F 23.2 °F 25.0 °F 82% 30.15 in 9.0 mi North 6.9 mph - 0.00 in Rain Light Freezing Rain
8:13 AM 30.2 °F 25.4 °F 24.8 °F 80% 30.17 in 10.0 mi North 4.6 mph - 0.00 in   Overcast
8:38 AM 30.2 °F 23.4 °F 24.8 °F 80% 30.19 in 4.0 mi NNE 6.9 mph - 0.01 in Rain Light Freezing Rain
8:53 AM 30.0 °F 21.7 °F 26.1 °F 85% 30.23 in 10.0 mi NNW 9.2 mph - 0.01 in Rain Light Freezing Rain
9:36 AM 30.2 °F 24.3 °F 26.6 °F 86% 30.21 in 3.0 mi North 5.8 mph - 0.02 in Rain Light Freezing Rain
9:40 AM 30.2 °F 24.3 °F 28.4 °F 93% 30.20 in 3.0 mi Variable 5.8 mph - 0.02 in Rain Light Freezing Rain
9:53 AM 30.0 °F 23.2 °F 27.0 °F 88% 30.21 in 5.0 mi North 6.9 mph - 0.03 in Rain Light Freezing Rain
10:53 AM 30.0 °F 23.2 °F 28.0 °F 92% 30.21 in 4.0 mi North 6.9 mph - 0.01 in Rain Light Freezing Rain
10:57 AM 30.2 °F 24.3 °F 28.4 °F 93% 30.20 in 2.5 mi North 5.8 mph - 0.00 in Rain Light Freezing Rain
11:33 AM 30.2 °F 23.4 °F 28.4 °F 93% 30.17 in 3.0 mi NNE 6.9 mph - 0.01 in Rain Light Freezing Rain
11:53 AM 30.0 °F 24.1 °F 28.0 °F 92% 30.17 in 6.0 mi NNE 5.8 mph - 0.01 in   Overcast
12:01 PM 30.2 °F 24.3 °F 28.4 °F 93% 30.15 in 6.0 mi NNE 5.8 mph - 0.00 in Rain Light Freezing Rain
12:29 PM 30.2 °F 24.3 °F 28.4 °F 93% 30.15 in 5.0 mi North 5.8 mph - 0.00 in   Overcast
12:53 PM 30.9 °F 23.5 °F 28.9 °F 92% 30.14 in 5.0 mi NNE 8.1 mph - 0.00 in   Overcast
1:53 PM 30.9 °F 22.8 °F 28.9 °F 92% 30.12 in 6.0 mi NNE 9.2 mph - 0.01 in Rain Light Freezing Rain
2:20 PM 30.2 °F 24.3 °F 28.4 °F 93% 30.11 in 8.0 mi NNE 5.8 mph - 0.00 in   Overcast
2:29 PM 30.2 °F 22.6 °F 30.2 °F 100% 30.10 in 8.0 mi NNE 8.1 mph - 0.00 in Rain Light Freezing Rain
2:53 PM 30.9 °F 24.3 °F 30.0 °F 96% 30.09 in 8.0 mi North 6.9 mph - 0.00 in Rain Light Freezing Rain
3:24 PM 30.2 °F 23.4 °F 28.4 °F 93% 30.10 in 10.0 mi North 6.9 mph - 0.00 in   Overcast
3:53 PM 30.9 °F 23.5 °F 28.9 °F 92% 30.11 in 10.0 mi North 8.1 mph - 0.00 in   Overcast
4:53 PM 30.9 °F 24.3 °F 30.0 °F 96% 30.13 in 10.0 mi North 6.9 mph - N/A   Overcast
5:53 PM 32.0 °F 26.4 °F 30.0 °F 92% 30.14 in 10.0 mi North 5.8 mph - N/A   Overcast
6:03 PM 32.0 °F 24.8 °F 28.4 °F 87% 30.15 in 10.0 mi NNE 8.1 mph - N/A   Overcast
6:18 PM 30.2 °F 23.4 °F 28.4 °F 93% 30.14 in 10.0 mi North 6.9 mph 16.1 mph N/A   Overcast
6:53 PM 32.0 °F 25.6 °F 30.0 °F 92% 30.16 in 10.0 mi North 6.9 mph - N/A   Overcast
7:53 PM 32.0 °F 26.4 °F 30.0 °F 92% 30.17 in 10.0 mi North 5.8 mph - N/A   Overcast
8:00 PM 32.0 °F 24.8 °F 30.2 °F 93% 30.16 in 9.0 mi North 8.1 mph - N/A   Overcast
8:53 PM 32.0 °F 25.6 °F 30.0 °F 92% 30.19 in 7.0 mi North 6.9 mph - N/A   Overcast
9:11 PM 32.0 °F 26.4 °F 30.2 °F 93% 30.18 in 2.5 mi NNW 5.8 mph - N/A   Overcast
9:40 PM 32.0 °F 26.4 °F 32.0 °F 100% 30.17 in 3.0 mi North 5.8 mph - N/A   Overcast
9:53 PM 32.0 °F 25.6 °F 32.0 °F 100% 30.19 in 5.0 mi NNW 6.9 mph - N/A   Overcast
10:53 PM 33.1 °F 27.7 °F 32.0 °F 96% 30.18 in 10.0 mi NNW 5.8 mph - N/A   Overcast